Wind_Speed
37 36 35 35 34 34 34 34 33 32 31 29 28 27 27 26 25 25 24 23 23 22 21 21 20 20 20 19 18 18 17 17 16 16 16 16 16 15 15 15 15 15 15
39 39 38 37 36 36 35 35 35 34 33 32 31 30 29 28 27 26 25 25 24 24 24 23 23 22 22 21 21 20 20 19 18 18 18 18 17 17 17 17 17 17 16
41 40 39 39 38 38 37 37 37 36 35 34 33 32 31 30 28 28 27 27 26 26 26 25 25 25 24 24 23 22 21 21 20 20 20 20 19 19 19 19 19 18 18
42 42 41 41 40 40 39 39 39 37 37 36 35 34 33 32 31 30 30 29 28 28 28 27 27 27 26 26 26 25 24 23 23 22 22 22 21 21 21 21 21 20 20
46 45 44 43 43 43 42 41 40 39 39 38 37 36 36 35 34 33 33 32 31 30 30 30 29 29 28 28 28 27 26 26 25 25 24 24 23 23 23 22 22 22 22
47 47 47 46 45 45 45 44 44 42 41 40 40 39 37 37 37 35 35 34 33 33 32 32 31 30 30 29 29 28 27 27 27 27 26 25 25 24 24 24 24 23 23
49 49 49 48 47 47 46 46 45 45 44 42 42 41 40 40 39 37 36 36 36 35 34 34 33 32 31 31 31 31 29 29 28 28 28 27 26 26 25 24 24 24 24
51 51 52 51 50 49 48 48 48 47 46 45 44 43 42 42 41 40 39 38 38 37 36 36 35 34 33 33 33 32 32 31 30 29 28 28 28 27 27 26 26 25 25
52 51 52 52 51 50 49 49 49 49 48 47 47 46 44 43 43 42 40 40 39 39 38 38 37 37 36 35 35 34 33 33 32 31 30 30 29 29 28 28 27 27 27
52 52 51 52 51 51 51 51 51 51 50 50 49 48 47 45 44 43 42 41 41 41 40 40 39 39 38 37 36 35 35 34 34 33 32 31 31 30 30 29 29 29 29
53 53 53 53 53 52 52 52 52 52 52 52 51 50 49 47 46 46 45 44 43 42 42 41 41 40 40 39 38 37 36 35 35 34 33 33 32 32 32 32 31 30 31
52 53 54 54 54 54 54 53 53 53 53 53 53 52 51 50 49 48 48 47 46 44 44 43 42 42 41 41 40 39 38 38 37 36 35 35 34 34 34 34 33 33 33
52 53 54 54 54 54 55 54 54 53 53 53 54 53 53 53 51 50 50 49 48 47 46 45 44 43 42 42 42 41 40 40 39 38 37 37 37 37 36 36 36 35 36
53 53 53 54 55 55 54 55 55 55 54 53 53 55 55 54 54 52 51 51 50 49 48 47 46 46 44 44 43 43 43 42 42 41 40 39 39 38 38 38 38 38 38
54 54 54 55 56 55 55 55 55 54 55 54 53 54 55 54 54 54 53 54 53 52 51 49 48 47 47 46 46 46 45 45 44 43 42 41 41 41 40 40 40 40 40
53 54 53 53 54 55 55 55 55 55 55 54 54 54 55 54 54 54 54 55 54 54 52 51 50 49 49 49 48 47 47 47 46 45 44 44 43 43 43 43 42 42 41
53 53 54 54 54 54 54 54 53 54 55 56 55 54 54 54 54 54 55 55 54 54 53 52 52 51 51 51 50 49 48 47 46 46 47 47 46 46 45 45 44 44 43
52 53 54 54 54 54 55 55 54 54 56 56 56 56 55 55 54 54 54 54 54 54 54 53 52 52 52 51 51 50 49 48 48 47 47 48 48 48 47 46 46 45 45
53 54 55 55 55 54 54 55 55 55 55 55 55 55 56 56 56 55 54 54 53 54 54 55 54 54 53 53 52 51 51 50 50 50 50 49 49 49 48 48 47 47 47
53 54 55 56 56 56 56 56 55 55 56 56 55 55 55 56 56 55 55 55 54 55 55 55 55 55 55 54 54 53 52 51 51 51 51 50 49 49 49 49 48 48 48
52 53 54 55 55 55 55 55 55 55 56 56 55 54 54 55 56 55 54 55 54 55 54 55 56 56 55 55 54 53 53 53 52 51 51 50 50 50 50 50 49 49 49
50 52 53 54 54 54 54 55 54 54 55 54 54 54 55 56 56 56 55 54 54 54 54 54 55 55 55 54 54 54 54 53 52 52 51 51 51 50 50 50 50 50 50
48 50 50 52 54 54 53 53 54 54 54 54 55 55 55 56 56 57 55 54 54 54 55 55 54 55 55 55 55 54 54 54 53 52 53 52 53 52 52 52 51 50 50
46 48 49 50 52 53 53 53 53 53 53 54 55 55 55 56 56 57 56 55 55 55 56 56 55 55 55 56 56 56 55 56 55 54 54 54 53 53 52 52 52 52 52
46 47 49 50 51 51 52 52 53 54 54 54 54 55 55 56 56 57 57 57 56 55 56 56 57 56 56 56 56 56 56 56 56 56 56 55 55 54 53 53 52 52 52
44 45 46 48 50 50 51 51 52 53 54 54 54 55 56 57 57 57 58 58 57 56 57 57 57 56 56 56 56 56 56 57 57 57 56 56 56 55 54 53 53 53 53
Wind_Direction
245 245 245 246 246 246 247 246 247 248 246 247 247 246 246 247 247 247 247 247 248 250 252 254 254 256 258 259 260 263 267 270 273 276 279 281 282 284 287 290 293 296 297
246 245 245 246 246 247 247 247 247 248 246 246 247 247 247 247 248 248 248 248 250 251 253 254 254 255 257 260 262 263 266 269 271 274 277 279 281 282 284 286 289 292 295
247 247 246 246 247 247 247 248 247 247 246 246 247 248 247 247 248 249 249 249 251 252 254 255 255 255 256 258 261 263 264 266 269 272 275 277 279 281 283 284 285 287 290
247 247 247 247 247 247 247 248 248 247 247 246 247 247 247 248 248 249 250 252 252 253 254 255 256 256 256 257 259 262 263 265 267 269 272 275 276 279 282 283 283 284 286
247 247 248 248 248 248 247 247 247 247 247 248 246 246 248 249 249 250 252 252 253 254 255 255 256 257 257 257 258 260 263 265 266 268 271 272 275 277 279 281 281 282 283
247 247 248 249 248 248 248 247 246 246 247 248 247 246 248 250 250 251 252 252 253 254 255 256 257 257 257 257 258 260 262 264 267 268 269 271 273 276 277 279 279 280 281
247 248 248 248 248 248 248 247 247 246 247 247 247 247 247 249 250 251 252 253 254 255 256 256 256 256 257 257 258 259 261 263 266 268 268 270 272 273 275 277 278 279 280
247 247 247 247 247 247 247 247 247 246 247 247 247 247 247 248 250 251 252 254 254 254 255 255 255 256 256 256 258 259 260 262 265 267 267 267 270 271 272 274 276 278 279
245 246 246 246 246 246 246 247 247 246 246 246 246 247 247 248 250 251 252 253 254 254 254 255 256 256 256 257 258 260 261 262 263 265 266 267 268 269 271 273 273 275 277
245 245 246 246 246 246 246 246 246 246 246 246 246 247 247 248 249 249 250 252 253 253 254 254 255 256 255 256 257 259 260 261 262 264 265 267 267 268 269 271 272 273 276
245 245 245 246 247 246 247 247 246 247 246 246 246 246 246 248 249 250 250 251 252 253 253 253 254 255 256 257 257 258 260 261 262 263 264 265 266 268 269 270 271 273 275
245 245 245 246 246 246 247 247 246 246 246 246 245 245 245 247 248 250 249 250 251 252 253 253 253 255 255 256 257 258 259 260 262 263 263 263 264 266 267 269 271 273 274
245 246 247 246 246 247 247 247 246 246 246 246 245 245 245 246 246 248 248 249 250 251 252 253 254 254 255 256 257 258 258 260 261 262 263 263 264 265 266 267 269 272 273
246 247 247 247 247 247 247 247 247 247 247 246 246 246 245 246 246 247 249 249 250 251 252 253 253 253 254 255 256 257 258 260 260 261 262 263 263 265 266 267 268 271 273
247 247 247 247 247 247 247 248 248 248 248 246 247 247 247 246 247 248 250 250 250 251 251 252 252 253 254 255 256 257 259 260 260 261 262 262 263 264 265 266 268 270 271
248 246 246 247 248 248 247 248 248 249 248 248 248 248 247 246 248 249 250 250 250 251 251 250 251 252 253 255 256 257 258 259 260 260 261 261 262 263 264 266 267 269 270
248 248 248 249 249 249 248 249 250 250 249 249 249 248 247 246 247 249 250 251 250 250 250 250 251 252 253 255 256 257 258 259 259 259 260 260 262 263 264 265 267 268 269
248 249 249 249 248 249 249 249 250 250 250 250 249 248 248 247 247 248 250 250 250 250 250 250 250 251 252 253 255 257 258 258 258 259 260 261 261 262 263 265 266 268 269
249 249 249 248 248 248 249 249 250 250 249 249 250 249 249 249 248 247 249 250 250 250 251 251 251 251 251 252 254 255 257 258 259 259 260 261 261 262 263 264 266 267 268
250 249 249 249 250 250 250 250 250 250 249 249 249 249 249 248 248 247 248 250 251 251 252 252 252 252 252 252 254 255 257 258 259 260 261 261 261 261 262 264 265 266 268
250 250 249 249 249 250 249 249 249 249 248 247 247 248 248 248 247 247 248 250 252 252 252 252 252 252 252 252 254 255 257 257 258 260 261 261 262 262 262 263 265 267 268
251 250 248 248 248 248 248 247 247 247 247 246 246 247 248 248 248 247 249 250 252 252 252 252 252 253 253 253 253 255 256 256 257 258 259 261 262 263 263 264 265 267 269
251 249 248 248 247 247 246 247 246 246 247 246 246 247 249 250 249 249 250 250 251 252 252 252 253 253 253 253 254 254 255 255 256 257 259 260 262 263 263 264 265 267 269
252 250 247 247 246 246 246 247 246 247 248 248 248 248 248 249 249 249 249 250 251 252 252 252 252 253 253 253 253 253 254 255 256 257 258 260 261 262 263 264 266 267 269
255 253 250 248 246 246 246 247 247 248 249 248 249 248 248 248 249 249 249 250 250 251 251 252 252 252 253 254 254 254 254 256 256 257 259 260 261 262 263 264 265 266 268
257 255 252 249 248 247 247 248 247 248 249 248 248 249 249 250 250 250 249 249 250 251 252 252 252 252 253 254 255 255 255 256 256 257 259 260 261 261 262 263 265 266 267
Height
5809 5811 5814 5816 5818 5820 5822 5824 5826 5828 5830 5831 5833 5835 5836 5837 5839 5840 5841 5842 5843 5844 5845 5845 5846 5846 5846 5847 5847 5847 5847 5847 5846 5846 5845 5845 5844 5843 5843 5842 5841 5840 5838
5800 5803 5805 5808 5810 5812 5815 5817 5819 5821 5823 5825 5827 5828 5830 5832 5833 5834 5836 5837 5838 5839 5840 5840 5841 5842 5842 5842 5842 5842 5843 5843 5843 5842 5842 5841 5840 5840 5839 5838 5837 5836 5835
5791 5794 5796 5799 5802 5804 5806 5809 5811 5813 5815 5818 5820 5822 5823 5825 5827 5828 5830 5831 5832 5833 5834 5835 5836 5836 5837 5837 5838 5838 5838 5838 5838 5838 5837 5837 5836 5836 5835 5834 5833 5832 5831
5781 5784 5787 5790 5792 5795 5797 5800 5802 5805 5808 5810 5812 5814 5816 5818 5820 5822 5823 5825 5826 5827 5828 5829 5830 5830 5831 5832 5832 5833 5833 5833 5833 5833 5833 5832 5832 5831 5830 5830 5829 5828 5827
5770 5773 5777 5780 5783 5785 5788 5790 5793 5796 5799 5801 5804 5806 5808 5810 5812 5814 5816 5817 5819 5820 5821 5822 5823 5824 5825 5825 5826 5827 5827 5827 5827 5828 5827 5827 5827 5826 5825 5825 5824 5823 5823
5759 5762 5765 5769 5771 5775 5778 5780 5783 5786 5789 5792 5795 5797 5800 5802 5804 5806 5808 5810 5811 5812 5814 5815 5816 5817 5818 5819 5819 5820 5821 5821 5821 5821 5821 5821 5821 5821 5820 5819 5819 5818 5817
5746 5749 5753 5756 5760 5763 5766 5770 5773 5776 5779 5782 5785 5788 5790 5793 5795 5797 5799 5801 5803 5804 5805 5807 5808 5809 5810 5811 5812 5813 5814 5814 5814 5815 5815 5815 5815 5815 5814 5814 5813 5812 5812
5733 5736 5740 5744 5747 5751 5754 5757 5761 5765 5768 5771 5775 5778 5781 5784 5786 5788 5790 5792 5794 5796 5797 5799 5800 5801 5802 5803 5804 5805 5806 5807 5807 5807 5808 5808 5808 5808 5808 5808 5807 5806 5806
5719 5723 5726 5730 5734 5737 5741 5745 5748 5752 5756 5760 5763 5767 5770 5774 5777 5779 5781 5783 5784 5786 5788 5790 5791 5793 5794 5795 5796 5797 5798 5798 5799 5800 5800 5800 5801 5801 5801 5801 5800 5800 5799
5706 5709 5713 5717 5720 5724 5728 5732 5735 5739 5743 5747 5751 5755 5759 5762 5765 5768 5771 5773 5775 5777 5778 5780 5782 5783 5785 5786 5787 5788 5789 5790 5791 5791 5792 5792 5793 5793 5793 5793 5793 5793 5792
5692 5695 5699 5703 5707 5710 5714 5718 5721 5726 5730 5734 5738 5742 5746 5749 5753 5756 5760 5762 5764 5766 5768 5770 5772 5773 5775 5776 5778 5779 5780 5781 5782 5783 5784 5784 5785 5785 5785 5785 5785 5785 5785
5678 5682 5685 5689 5692 5696 5700 5704 5708 5712 5716 5720 5725 5729 5733 5737 5740 5744 5747 5750 5753 5755 5757 5759 5761 5763 5765 5766 5768 5769 5770 5772 5772 5773 5774 5775 5776 5776 5777 5777 5777 5777 5776
5664 5668 5672 5676 5679 5682 5686 5690 5694 5698 5702 5707 5711 5715 5719 5723 5727 5730 5734 5737 5740 5744 5746 5748 5750 5752 5754 5756 5758 5759 5761 5762 5763 5764 5765 5766 5767 5767 5768 5768 5768 5768 5768
5651 5655 5658 5662 5665 5668 5672 5676 5680 5684 5688 5693 5697 5701 5706 5710 5713 5717 5721 5724 5727 5731 5734 5737 5738 5741 5743 5745 5747 5748 5750 5751 5752 5754 5755 5756 5757 5757 5758 5758 5758 5758 5758
5637 5641 5644 5648 5651 5655 5659 5662 5666 5670 5674 5678 5683 5687 5692 5696 5699 5703 5706 5710 5714 5718 5722 5725 5727 5729 5731 5733 5735 5737 5739 5740 5741 5743 5744 5745 5746 5747 5748 5748 5748 5748 5748
5624 5627 5630 5634 5637 5641 5645 5649 5653 5656 5660 5664 5669 5673 5677 5682 5685 5689 5692 5696 5700 5704 5708 5712 5715 5717 5718 5720 5723 5725 5727 5728 5730 5731 5732 5734 5735 5736 5736 5737 5737 5737 5737
5610 5613 5617 5620 5624 5627 5632 5636 5639 5643 5646 5650 5655 5659 5664 5668 5671 5675 5678 5682 5686 5689 5694 5698 5701 5704 5706 5708 5710 5712 5714 5716 5718 5719 5720 5722 5723 5724 5725 5725 5726 5726 5726
5596 5599 5603 5607 5610 5614 5618 5622 5626 5629 5633 5637 5641 5645 5649 5654 5657 5661 5664 5668 5672 5675 5680 5684 5687 5690 5693 5695 5697 5699 5702 5703 5705 5707 5708 5709 5711 5712 5712 5713 5714 5714 5714
5583 5586 5589 5592 5596 5599 5603 5608 5612 5615 5619 5623 5627 5631 5635 5639 5643 5647 5650 5654 5657 5661 5665 5669 5673 5676 5679 5681 5684 5686 5688 5691 5692 5694 5695 5697 5698 5699 5700 5701 5701 5702 5702
5568 5571 5575 5578 5581 5585 5589 5593 5597 5600 5604 5609 5613 5617 5621 5625 5629 5633 5637 5640 5644 5647 5650 5654 5658 5661 5665 5667 5670 5673 5675 5677 5679 5681 5682 5683 5685 5686 5687 5688 5689 5689 5689
5554 5557 5560 5563 5567 5571 5574 5578 5583 5586 5590 5594 5599 5603 5607 5611 5615 5618 5622 5626 5629 5633 5636 5639 5643 5646 5650 5653 5656 5659 5661 5663 5665 5667 5669 5670 5672 5673 5674 5675 5675 5676 5676
5539 5542 5545 5548 5552 5556 5560 5564 5568 5572 5576 5580 5584 5589 5593 5596 5600 5604 5608 5612 5615 5619 5622 5625 5628 5632 5635 5639 5642 5644 5647 5650 5653 5655 5655 5657 5658 5659 5660 5661 5662 5663 5663
5525 5528 5530 5534 5537 5542 5546 5550 5553 5558 5562 5566 5570 5575 5579 5582 5586 5590 5593 5597 5600 5604 5608 5611 5614 5617 5620 5624 5628 5631 5632 5635 5638 5640 5641 5643 5644 5646 5647 5648 5648 5649 5649
5512 5514 5517 5520 5524 5527 5531 5536 5540 5544 5548 5552 5556 5560 5564 5568 5571 5575 5579 5582 5586 5590 5593 5596 5601 5604 5605 5608 5611 5615 5617 5620 5623 5624 5626 5629 5631 5632 5633 5634 5635 5635 5636
5499 5501 5503 5506 5510 5513 5517 5521 5525 5529 5533 5537 5541 5545 5549 5553 5557 5560 5564 5568 5572 5575 5578 5581 5585 5588 5590 5593 5596 5599 5602 5605 5608 5610 5612 5614 5616 5617 5619 5620 5620 5621 5621
5487 5488 5490 5493 5496 5499 5503 5507 5511 5515 5519 5523 5527 5530 5534 5538 5541 5544 5548 5552 5557 5560 5563 5566 5569 5572 5575 5578 5580 5584 5587 5590 5592 5595 5597 5599 5601 5601 5604 5606 5606 5606 5607